[[[{"header":{"parameterUnit":"kt","parameterCategory":2,"dx":1,"dy":1,"la1":30.253999710083008,"la2":30.299108505249023,"lo1":-89.0895004272461,"lo2":-89.04439544677734,"nx":28,"ny":28,"refTime":"2022-10-24T21:00:00:Z","depth":0,"parameterNumber":1,"parameterNumberName":"U-component_of_WINDS"},"data":[-7.4128,-7.429,-7.4388,-7.4613,-7.4738,-7.4907,-7.4998,-7.5123,-7.5246,-7.5452,-7.5586,-7.5694,-7.5849,-7.6026,-7.6171,-7.6214,-7.6268,-7.6255,-7.6308,-7.6288,-7.6291,-7.6294,-7.6267,-7.6265,-7.6265,-7.6316,-7.6316,-7.6316,-7.4103,-7.423,-7.4379,-7.459,-7.4717,-7.4789,-7.4958,-7.5058,-7.5204,-7.5356,-7.5494,-7.568,-7.5837,-7.6,-7.6164,-7.6234,-7.6274,-7.6271,-7.6268,-7.629,-7.6273,-7.6242,-7.6236,-7.6236,-7.6236,-7.6236,-7.6236,-7.6236,-7.4082,-7.4175,-7.4362,-7.4525,-7.4656,-7.4794,-7.4896,-7.5032,-7.5174,-7.5366,-7.5449,-7.5614,-7.578,-7.6024,-7.6127,-7.6253,-7.6273,-7.6297,-7.6304,-7.6308,-7.63,-7.6215,-7.6285,-7.6285,-7.6285,-7.6286,-7.6286,0,-7.4098,-7.4176,-7.4326,-7.4506,-7.4629,-7.4775,-7.4925,-7.499,-7.5179,-7.5287,-7.5452,-7.5561,-7.5773,-7.5934,-7.6108,-7.6212,-7.6292,-7.631,-7.6327,-7.6291,-7.6236,-7.6267,-7.6234,-7.6307,-7.6308,-7.6308,-7.6309,-7.6309,-7.4086,-7.4182,-7.4425,-7.4517,-7.4625,-7.4769,-7.4874,-7.5035,-7.5138,-7.5341,-7.5411,-7.5576,-7.5717,-7.5955,-7.6105,-7.6261,-7.6301,-7.6319,-7.6325,-7.6285,-7.6302,-7.6296,-7.6306,-7.6315,-7.6314,-7.6313,-7.6313,0,-7.4069,-7.4232,-7.4413,-7.4643,-7.4704,-7.4794,-7.4988,-7.5083,-7.5204,-7.535,-7.5393,-7.558,-7.5734,-7.5884,-7.6087,-7.6159,-7.6299,-7.6334,-7.6244,-7.6259,-7.629,-7.6285,-7.6367,-7.6385,-7.6388,-7.6387,-7.6387,0,-7.4122,-7.4241,-7.4478,-7.4574,-7.471,-7.4873,-7.5001,-7.5119,-7.527,-7.5387,-7.5508,-7.5613,-7.5788,-7.5914,-7.602,-7.6161,-7.6199,-7.6262,-7.6289,-7.6253,-7.6245,-7.6307,-7.6307,-7.6346,-7.6346,-7.6345,-7.6345,0,-7.408,-7.4347,-7.4505,-7.4591,-7.4848,-7.4916,-7.5024,-7.5196,-7.5296,-7.5448,-7.5514,-7.5677,-7.5766,-7.5887,-7.6024,-7.6022,-7.6199,-7.6225,-7.6264,-7.6261,-7.6296,-7.6292,-7.6327,-7.6344,-7.6344,-7.6344,-7.6344,0,-7.4149,-7.4311,-7.4514,-7.4732,-7.4795,-7.4896,-7.5074,-7.5196,-7.5367,-7.5444,-7.5564,-7.5662,-7.58,-7.5814,-7.6004,-7.5964,-7.6042,-7.6116,-7.6122,-7.6144,-7.6157,-7.6157,-7.6175,-7.6183,-7.6161,-7.616,-7.6159,0,-7.4057,-7.4308,-7.4453,-7.464,-7.4778,-7.4911,-7.5024,-7.5174,-7.5288,-7.5416,-7.5538,-7.568,-7.5724,-7.5789,-7.5863,-7.5993,-7.6044,-7.599,-7.6163,-7.6167,-7.6117,-7.6135,-7.6102,-7.6155,-7.6141,-7.6143,-7.6145,0,-7.4007,-7.4326,-7.4349,-7.4456,-7.4687,-7.4801,-7.4931,-7.5113,-7.5191,-7.5345,-7.5457,-7.5659,-7.5701,-7.5807,-7.5904,-7.5972,-7.6014,-7.6007,-7.6013,-7.6003,-7.6145,-7.6113,-7.6122,-7.6062,-7.6064,-7.6066,-7.6131,0,-7.4076,-7.4224,-7.4295,-7.4526,-7.464,-7.4766,-7.4937,-7.5032,-7.5118,-7.5236,-7.5401,-7.5561,-7.5739,-7.5789,-7.5871,-7.5982,-7.5987,-7.6028,-7.6055,-7.6065,-7.609,-7.61,-7.6004,-7.6006,-7.6007,-7.6008,0,0,-7.3946,-7.4164,-7.432,-7.4459,-7.4564,-7.4702,-7.4822,-7.4938,-7.517,-7.5237,-7.5254,-7.5563,-7.5691,-7.5873,-7.5889,-7.596,-7.5994,-7.5985,-7.6059,-7.6064,-7.6069,-7.6093,-7.6101,-7.6011,-7.6011,-7.6012,-7.6012,0,-7.401,-7.4151,-7.4272,-7.4403,-7.4603,-7.4725,-7.4753,-7.4973,-7.5055,-7.5221,-7.5327,-7.5445,-7.5686,-7.5809,-7.5903,-7.5967,-7.6038,-7.6008,-7.5989,-7.6068,-7.607,-7.6074,-7.6097,-7.6103,-7.6016,-7.6016,-7.6015,0,-7.3992,-7.416,-7.4237,-7.4488,-7.4619,-7.4755,-7.4828,-7.4968,-7.507,-7.5206,-7.5369,-7.5479,-7.5656,-7.5807,-7.588,-7.5897,-7.6069,-7.6043,-7.6039,-7.605,-7.6134,-7.6137,-7.614,-7.61,-7.61,-7.61,0,0,-7.4022,-7.4162,-7.4392,-7.4515,-7.459,-7.4775,-7.4864,-7.4961,-7.5124,-7.5188,-7.5333,-7.5482,-7.5625,-7.5714,-7.5856,-7.5997,-7.6046,-7.6047,-7.6044,-7.604,-7.6048,-7.6131,-7.6134,-7.6098,-7.6098,-7.6098,0,0,-7.4035,-7.431,-7.4371,-7.4537,-7.4691,-7.4921,-7.4987,-7.5065,-7.5213,-7.5217,-7.538,-7.5427,-7.5571,-7.5674,-7.5637,-7.5868,-7.5891,-7.5903,-7.5796,-7.5793,-7.579,-7.5762,-7.573,0,0,0,0,0,-7.419,-7.4277,-7.433,-7.4384,-7.47,-7.4892,-7.4933,-7.5076,-7.509,-7.5139,-7.5273,-7.5344,-7.5688,-7.566,-7.5706,-7.5746,-7.6081,-7.6084,-7.6087,-7.5984,-7.5979,-7.5975,0,0,0,0,0,0,-7.4213,-7.4278,-7.4328,-7.456,-7.4632,-7.4891,-7.4947,-7.4988,-7.5089,-7.5101,-7.5316,-7.5351,-7.5471,-7.5645,-7.5685,-7.572,-7.5716,-7.6083,-7.6085,-7.6087,-7.5982,-7.5979,-7.5975,0,0,0,0,0,-7.4231,-7.4284,-7.4756,-7.4559,-7.4622,-7.4832,-7.4945,-7.498,-7.506,-7.5267,-7.5305,-7.5158,-7.5468,-7.5511,-7.567,-7.5698,-7.569,-7.5704,-7.6084,-7.6086,-7.6088,-7.5981,0,0,0,0,0,0,-7.4245,-7.4315,-7.4771,-7.4796,-7.454,-7.4821,-7.487,-7.4972,-7.5223,-7.526,-7.5116,-7.5123,-7.5467,-7.5501,-7.5533,-7.5683,-7.5668,-7.5683,-7.5692,-7.6086,-7.6087,-7.6089,0,0,0,0,0,0,-7.4288,-7.4334,-7.4784,-7.4751,-7.4773,-7.4809,-7.4853,-7.5006,-7.5223,-7.5058,-7.5071,-7.5116,-7.5415,-7.5494,-7.552,-7.5753,-7.5651,-7.5665,-7.5675,-7.5681,-7.6087,-7.6088,0,0,0,0,0,0,-7.431,-7.435,-7.4745,-7.4762,-7.4781,-7.5062,-7.4946,-7.526,-7.5202,-7.5044,-7.52,-7.5199,-7.5406,-7.5435,-7.551,-7.5732,-7.5748,-7.5652,-7.5661,-7.5668,-7.5672,0,0,0,0,0,0,0,-7.4328,-7.4025,-7.4629,-7.4771,-7.4788,-7.5019,-7.5026,-7.5032,-7.5202,-7.5201,-7.52,-7.52,-7.5571,-7.5586,-7.5602,-7.5714,0,0,-7.565,-7.5657,0,0,0,0,0,0,0,0,-7.4011,-7.4022,-7.4629,-7.4635,-7.4639,-7.502,-7.5025,-7.5031,-7.5202,-7.5201,-7.5201,-7.52,-7.5575,-7.5588,-7.56,0,0,0,0,0,0,0,0,0,0,0,0,0,0,0,-7.463,-7.4634,0,-7.5021,-7.5025,-7.503,-7.5202,-7.5201,-7.5201,-7.52,-7.5579,-7.5589,-7.5599,0,0,0,0,0,0,0,0,0,0,0,0,0,0,0,0,0,0,0,0,0,0,0,0,0,0,0,0,0,0,0,0,0,0,0,0,0,0,0,0,0,0,0,0,0,0,0,0,0,0,0,0,0,0,0,0,0,0,0,0,0,0,0,0,0,0,0,0,0]}],[{"header":{"parameterUnit":"kt","parameterCategory":2,"dx":1,"dy":1,"la1":30.253999710083008,"la2":30.299108505249023,"lo1":-89.0895004272461,"lo2":-89.04439544677734,"nx":28,"ny":28,"refTime":"2022-10-24T21:00:00:Z","depth":0,"parameterNumber":2,"parameterNumberName":"V-component_of_WINDS"},"data":[1.7277,1.7329,1.7353,1.7429,1.7464,1.7523,1.7552,1.7596,1.7637,1.7718,1.7771,1.7806,1.7863,1.7938,1.8002,1.8018,1.8045,1.8051,1.807,1.8012,1.8007,1.8001,1.7987,1.8056,1.8056,1.8125,1.8126,1.8126,1.7255,1.7288,1.7331,1.7389,1.743,1.7441,1.7491,1.7527,1.7581,1.7631,1.768,1.7755,1.7819,1.7873,1.7941,1.7978,1.7989,1.7996,1.7994,1.8005,1.7945,1.793,1.7987,1.7987,1.7987,1.7987,1.7987,1.7987,1.7221,1.725,1.7295,1.7342,1.7377,1.7418,1.7453,1.7489,1.7535,1.7599,1.7618,1.7682,1.774,1.783,1.7867,1.7924,1.7921,1.7937,1.7942,1.7946,1.795,1.7861,1.7936,1.7936,1.7936,1.7936,1.7936,0,1.7203,1.7219,1.7257,1.7305,1.734,1.738,1.742,1.7443,1.7485,1.7522,1.7579,1.7617,1.7695,1.7756,1.7822,1.7857,1.7874,1.7875,1.7888,1.788,1.787,1.7883,1.779,1.7872,1.7871,1.7871,1.7871,1.7871,1.7175,1.7201,1.7255,1.728,1.7304,1.7344,1.7374,1.7406,1.7438,1.7496,1.7524,1.7581,1.7628,1.7721,1.7765,1.7825,1.7833,1.7863,1.7841,1.7838,1.7841,1.784,1.7848,1.7866,1.7867,1.7867,1.7867,0,1.7159,1.7186,1.7234,1.7281,1.7295,1.7325,1.737,1.7402,1.7429,1.7479,1.7493,1.7537,1.7594,1.7631,1.7702,1.7722,1.7793,1.7796,1.7777,1.7781,1.7816,1.7814,1.791,1.7929,1.7853,1.7853,1.7854,0,1.7145,1.7178,1.7219,1.7244,1.7287,1.7312,1.7356,1.7382,1.7421,1.7459,1.7477,1.7515,1.7553,1.7599,1.7626,1.7689,1.7699,1.772,1.7727,1.7718,1.7717,1.7738,1.7736,1.7732,1.7732,1.7731,1.7731,0,1.7117,1.7172,1.7213,1.723,1.7281,1.7302,1.7326,1.7366,1.7393,1.7435,1.7455,1.7503,1.753,1.7572,1.7604,1.7589,1.7679,1.7664,1.77,1.7699,1.7715,1.7714,1.779,1.773,1.773,1.773,1.773,0,1.7108,1.7139,1.7191,1.7235,1.7248,1.7275,1.732,1.735,1.7392,1.7407,1.744,1.7454,1.7502,1.7489,1.7561,1.7533,1.7563,1.7584,1.7587,1.7593,1.7575,1.7618,1.7684,1.7694,1.7605,1.7604,1.7603,0,1.7072,1.7127,1.7144,1.7193,1.7223,1.7238,1.7271,1.7302,1.7323,1.7358,1.7384,1.7422,1.7416,1.7433,1.7464,1.7494,1.7531,1.749,1.7553,1.7555,1.7545,1.7605,1.7606,1.7666,1.7589,1.7591,1.7592,0,1.7044,1.7093,1.7099,1.712,1.7156,1.7179,1.7215,1.7253,1.7275,1.7304,1.734,1.739,1.7391,1.7415,1.7428,1.7459,1.7508,1.7454,1.7456,1.7468,1.7582,1.7585,1.7595,1.7512,1.7514,1.7515,1.7581,0,1.7035,1.706,1.7076,1.711,1.7131,1.7159,1.7181,1.7203,1.7212,1.723,1.7279,1.7307,1.7347,1.7362,1.7369,1.7424,1.7421,1.7417,1.7404,1.7441,1.7465,1.7473,1.7369,1.7369,1.7368,1.7368,0,0,1.6996,1.7029,1.7039,1.7066,1.7084,1.7091,1.712,1.7139,1.7175,1.7191,1.7184,1.7257,1.7278,1.7334,1.7347,1.7361,1.7377,1.7357,1.7422,1.7428,1.7433,1.7457,1.7466,1.7368,1.7368,1.7368,1.7368,0,1.6994,1.7005,1.7027,1.7046,1.7072,1.7085,1.7092,1.7119,1.713,1.717,1.7177,1.7208,1.7258,1.7285,1.7305,1.7353,1.7357,1.7363,1.7382,1.7418,1.7424,1.743,1.7455,1.7463,1.7367,1.7367,1.7367,0,1.6973,1.6989,1.6999,1.703,1.7046,1.7072,1.7064,1.7088,1.7111,1.7115,1.7153,1.7171,1.7204,1.7248,1.7269,1.7262,1.734,1.7315,1.7317,1.732,1.7356,1.7363,1.737,1.7285,1.7285,1.7284,0,0,1.697,1.6987,1.701,1.703,1.704,1.7057,1.7071,1.7078,1.7101,1.711,1.713,1.7157,1.7189,1.7209,1.7238,1.7282,1.7294,1.7304,1.7307,1.731,1.7315,1.7352,1.7359,1.7283,1.7283,1.7283,0,0,1.6967,1.6991,1.6992,1.7016,1.7037,1.7061,1.7076,1.7079,1.7105,1.7103,1.7118,1.7126,1.7167,1.7182,1.7161,1.7235,1.722,1.7225,1.7221,1.7226,1.723,1.7226,1.7155,0,0,0,0,0,1.6971,1.6989,1.6989,1.6995,1.703,1.7061,1.7067,1.7076,1.7068,1.7081,1.71,1.7099,1.7176,1.7157,1.7166,1.7189,1.7264,1.7267,1.727,1.7276,1.7281,1.7285,0,0,0,0,0,0,1.6974,1.6981,1.6989,1.7012,1.7021,1.7061,1.7049,1.7053,1.7067,1.7066,1.7096,1.71,1.7111,1.7153,1.7161,1.7183,1.7152,1.7265,1.7268,1.7271,1.7278,1.7282,1.7285,0,0,0,0,0,1.6976,1.6981,1.7034,1.7013,1.702,1.7037,1.7048,1.7051,1.7062,1.7087,1.7091,1.7068,1.7111,1.7119,1.7158,1.7179,1.7147,1.7149,1.7267,1.7269,1.7271,1.728,0,0,0,0,0,0,1.6977,1.6986,1.7035,1.7038,1.7003,1.7035,1.704,1.705,1.7082,1.7086,1.7059,1.7059,1.7112,1.7117,1.7123,1.7177,1.7142,1.7145,1.7147,1.7269,1.7271,1.7272,0,0,0,0,0,0,1.6983,1.6989,1.7037,1.7024,1.7026,1.7033,1.7037,1.707,1.7083,1.7054,1.7054,1.7059,1.7105,1.7117,1.7121,1.7172,1.7139,1.7142,1.7144,1.7145,1.727,1.7272,0,0,0,0,0,0,1.6986,1.699,1.7024,1.7025,1.7026,1.7059,1.7063,1.71,1.7068,1.7052,1.7066,1.7065,1.7104,1.7109,1.712,1.7169,1.7171,1.7139,1.7141,1.7142,1.7143,0,0,0,0,0,0,0,1.6988,1.6953,1.7018,1.7025,1.7026,1.7064,1.7065,1.7066,1.7068,1.7067,1.7066,1.7065,1.7123,1.7126,1.7129,1.7166,0,0,1.7139,1.714,0,0,0,0,0,0,0,0,1.6952,1.6953,1.7018,1.7019,1.7019,1.7064,1.7065,1.7066,1.7067,1.7067,1.7066,1.7065,1.7124,1.7126,1.7129,0,0,0,0,0,0,0,0,0,0,0,0,0,0,0,1.7018,1.7019,0,1.7065,1.7065,1.7066,1.7067,1.7067,1.7066,1.7066,1.7124,1.7126,1.7128,0,0,0,0,0,0,0,0,0,0,0,0,0,0,0,0,0,0,0,0,0,0,0,0,0,0,0,0,0,0,0,0,0,0,0,0,0,0,0,0,0,0,0,0,0,0,0,0,0,0,0,0,0,0,0,0,0,0,0,0,0,0,0,0,0,0,0,0,0]}]]]